map of TZX home
Great Circle Mapper logo
TZX - Airport
Location
City:  Trabzon, Turkey
Name:Trabzon AB
ICAO / IATA:LTCG / TZX

Details
Type:Airport (Aerodrome, Airfield)
Use:Public/Civil, Military
Latitude:4059'42"N (40.995108)
Longitude:3947'23"E (39.789728)
Datum:WGS 1984
Elevation:104 ft (32 m)
Runways:1
Longest:8661 × 148 ft (2640 × 45 m), paved

Time
Time Zone:UTC+2 (DST+3)
Local Time:

Weather
METAR:LTCG 260820Z 04006KT 340V070 9999 BKN035 BKN080 28/22 Q1008 NOSIG RMK RWY29 06006KT
TAF:LTCG 252240Z 2600/2624 VRB02KT 9999 SCT035 BKN100
BECMG 2605/2607 30012KT
TEMPO 2612/2616 -SHRA SCT010 FEW020CB BKN030
BECMG 2615/2618 VRB02KT PROB40 2620/2624 BKN009

Related Locations
Nearby:
Farthest:NTAV: 11176 mi / 17986 km
Raivavae, Tubuai Islands, Austral Islands, PF

Find:

   beyond  
but within

Other Information
Maps:
NOTAMs:
Links:
Sources:

  
flag of Turkey   

Sectional Chart

Flight Planning
at skyvector.com

Satellite Image

Google Maps Satellite View

 

Copyright © 2004-2014 Karl L. Swartz. All rights reserved.
The Great Circle Mapper name and logo are trademarks of the Great Circle Mapper.
All other trademarks mentioned herein belong to their respective owners.
Please see credits for attibutions and further copyright information.

  Follow gcmap on Facebook Follow gcmap on Twitter

hCard Microformat

Geo Microformat